Regional Weather Roundup
Issued by NWS Cleveland, OH

Home | Current Version | Previous Version | Text Only | Print | Product List | Glossary On
Versions: 1 2 3 4 5 6 7 8 9 10 11 12 13 14 15 16 17 18 19 20 21 22 23 24 25 26 27 28 29 30 31 32 33 34 35 36 37 38 39 40 41 42 43 44 45 46 47 48 49 50
000
ASUS41 KCLE 281212
RWRCLE
OHIO REGIONAL WEATHER ROUNDUP
NATIONAL WEATHER SERVICE WILMINGTON, OH
800 AM EDT SAT MAY 28 2016

NOTE: "FAIR" INDICATES FEW OR NO CLOUDS BELOW 12,000 FEET WITH NO
SIGNIFICANT WEATHER AND/OR OBSTRUCTIONS TO VISIBILITY.

OHZ001>008-015>018-024>027-034-035-043-044-281300-
   NORTHWEST OHIO

CITY           SKY/WX    TMP DP  RH WIND       PRES   REMARKS
DEFIANCE       PTSUNNY   75  63  66 S8        30.02R
FINDLAY        FAIR      73  62  68 S10       30.04R
TOLEDO EXPRESS FAIR      70  63  78 S5        30.03R
TOLEDO EXEC    FAIR      72  63  73 S9        30.04R
LIMA           FAIR      72  64  76 S10       30.05R
$$

OHZ009>014-019>023-028>033-038-089-281300-
   NORTHEAST OHIO

CITY           SKY/WX    TMP DP  RH WIND       PRES   REMARKS
CLE-HOPKINS    PTSUNNY   76  65  68 S9        30.08S
CLE-LAKEFRONT  FAIR      76  65  68 SE10      30.05R
CUY CO. ARPT   PTSUNNY   72  66  83 SE6       30.07
LORAIN-ELYRIA  FAIR      72  64  76 S6        30.07R
ASHTABULA      FAIR      72  67  84 CALM      30.10R
AKRON-CANTON   PTSUNNY   72  64  76 S7        30.10R
WOOSTER        FAIR      72  65  78 S7        30.10R
MANSFIELD      FAIR      72  66  81 S9        30.10R
YOUNGSTOWN     PTSUNNY   72  65  78 SE5       30.11R
$$

OHZ042-051>053-060>062-070>072-077>081-281300-
  SOUTHWEST OHIO

CITY           SKY/WX    TMP DP  RH WIND       PRES   REMARKS
CINC-COVINGTON FAIR      71  66  84 S8        30.07R
CINC-LUNKEN    FAIR      67  66  97 CALM      30.08R
HAMILTON       PTSUNNY   72  66  81 SE3       30.08R
DAYTON         PTSUNNY   72  65  78 S9        30.08R
WRIGHT-PAT AFB PTSUNNY   71  67  86 S8        30.07R
DAYTON GENERAL FAIR      71  64  78 S9        30.07R
WILMINGTON     FAIR      70  64  81 S7        30.09R
$$

OHZ036-037-039>041-045>050-054>059-063>069-073>076-082>088-281300-
  CENTRAL AND SOUTHEAST OHIO

CITY           SKY/WX    TMP DP  RH WIND       PRES   REMARKS
COLUMBUS       CLOUDY    72  66  81 SE6       30.08R
OSU AIRPORT    FAIR      72  66  81 S6        30.08R
BOLTON FIELD   PTSUNNY   70  66  88 S5        30.09S
RICKENBACK AFB FAIR      70  66  86 S5        30.08S
NEWARK         FAIR      71  65  81 S5        30.09R
MARION         FAIR      72  65  78 S8        30.08R
LANCASTER      FAIR      72  66  81 SE7       30.10R
ZANESVILLE     FAIR      73  65  75 S5        30.10S
NEW PHILLY     FAIR      72  65  78 SE7       30.11R
$$



USA.gov is the U.S. government's official web portal to all federal, state and local government web resources and services.